Starlink 35335

operational
NORAD ID: 66181 Int'l Des: 2025-243 Owner: SPXS Country: US Constellation: starlink
LEOCIRCULAR

About Starlink 35335

Description loading...

Live Position

Loading 3D Globe...

Upcoming Passes

Altitude History

Altitude vs Time

uPlot chart will show altitude changes over time

Two-Line Element Set

1 66181U 25243E 25310.84739340 -.00426612 00000-0 -24811-2 0 9998
2 66181 53.1525 100.3234 0000489 344.9752 15.1255 15.78901658 1788
Epoch: Nov 6, 2025 • Age: 8 hours

Current Status

Altitude 339.7 km
Velocity 7.71 km/s
Sub-Earth Point 48.29°N, 45.43°E
Launch Date Oct 26, 2025
Age 11 days
Type internet

Technical Details

Classification Payload
Mass 575.00 kg
Dry Mass 530.00 kg
Total Mass 575.00 kg
Length 0.30 m
Diameter 4.10 m
Span 29.00 m
Shape Box + pan
Manufacturer SPXS
Bus Type Starlink V2MO
Phase Status In Orbit
Owner/State SPXS/US

Large Constellations

Loading constellations...